SONATE
1 44400U 19038Q   25126.20175697  .00166876  00000-0  89481-3 0  9993
2 44400  97.6953 148.8973 0004152  53.3314 306.8334 15.79812175324129
Taurus 1
1 44530U 19059C   25126.86449566  .00008632  00000-0  16030-2 0  9995
2 44530  98.6025 264.6760 0010822 140.0309 220.1692 14.65408724299002
Duchifat 3
1 44854U 19089C   25126.57073988  .00044473  00000-0  95420-3 0  9990
2 44854  36.9434 210.9714 0001031 346.1282  13.9445 15.43748968297684
TO-108
1 44881U 19093C   25126.81470598  .00001324  00000-0  15918-3 0  9992
2 44881  97.7929 203.1704 0013370 348.6109  11.4802 14.85530474291067
FloripaSat 1
1 44885U 19093G   25126.75502775  .00005958  00000-0  50777-3 0  9991
2 44885  97.8146 214.2986 0009883 321.6513  38.4005 14.98096221291685
RS-44
1 44909U 19096E   25126.07685293  .00000016  00000-0  17713-4 0  9997
2 44909  82.5210 250.1994 0217625  16.5538 344.2524 12.79740370250323
UPMSat 2
1 46276U 20061E   25126.19075582  .00068382  00000-0  71348-3 0  9990
2 46276  97.2463 199.5295 0001342 153.5867 206.5461 15.64301183260085
SALSAT
1 46495U 20068K   25126.37430211  .00009272  00000-0  40577-3 0  9997
2 46495  97.8584 102.8405 0009467 283.5441  76.4739 15.22250996253326
CubeSX-Sirius-HSE
1 47951U 21022V   25126.83293226  .00280096  00000-0  13788-2 0  9998
2 47951  97.4158  38.3200 0008909  96.2451 263.9833 15.81361980228492
CubeSX-HSE
1 47952U 21022W   25126.53189040  .00290712  00000-0  14096-2 0  9993
2 47952  97.4171  38.2499 0008393  95.0606 265.1621 15.81670435228467
GRBAlpha
1 47959U 21022AD  25126.70404903  .00262688  00000-0  13343-2 0  9992
2 47959  97.4163  38.5323 0008441  95.3557 264.8674 15.80725133227318
TUBIN
1 48900U 21059X   25126.83508047  .00046552  00000-0  63072-3 0  9992
2 48900  97.6737 293.4024 0002423   2.3795 357.7470 15.57552419214782
LEDSAT
1 49069U 21073D   25126.79070791  .00060250  00000-0  84854-3 0  9992
2 49069  97.3903 207.0296 0011872 196.2805 163.8070 15.56367693206179
CUTE
1 49263U 21088D   25125.47769808  .00019316  00000-0  40210-3 0  9997
2 49263  97.4519 200.7477 0007990  20.3936 339.7630 15.45623073199002
TeikyoSat 4
1 49396U 21102B   25126.16935953  .00002722  00000-0  18319-3 0  9992
2 49396  97.4139 165.8376 0010877 248.1936 111.8135 15.07492763191362
Z-Sat
1 49399U 21102E   25126.85136509  .00005111  00000-0  28317-3 0  9995
2 49399  97.3836 169.3863 0017270 216.2146 143.7918 15.14112520191878
KOSEN 1
1 49402U 21102H   25126.63701070  .00007566  00000-0  35516-3 0  9992
2 49402  97.3740 172.3417 0015907 191.4610 168.6265 15.19806476192137
HO-113
1 50466U 21131B   25126.87106930  .00000788  00000-0  26023-3 0  9998
2 50466  98.5086 216.3928 0003349 223.1151 136.9776 14.40771776176595
IRIS-A
1 51044U 22002BN  25126.45381769  .00292696  00000-0  11482-2 0  9991
2 51044  97.3241 205.2650 0005660 239.2049 120.8665 15.86195805184467
Foresail-1
1 52766U 22057AL  25126.20782075  .00211459  00000-0  10834-2 0  9999
2 52766  97.6044 274.3143 0001907 292.5094  67.5972 15.80706629164449
SNUGLITE 2
1 52899U 22065F   25126.22898773  .00001809  00000-0  36114-3 0  9996
2 52899  98.1633 268.5484 0006989 212.3021 147.7754 14.63125769151461
IO-117
1 53106U 22080B   25051.21822557 -.00000003  00000-0  00000+0 0  9995
2 53106  70.1434 106.3440 0008542  48.0089 312.1297  6.42557744 61200
UmKA 1 (RS40S)
1 57172U 23091G   25126.85979767  .00006492  00000-0  35054-3 0  9992
2 57172  97.5609 182.4224 0016245  92.4528 267.8564 15.14958705102377
CubeBel-2 (EU11S)
1 57175U 23091K   25126.84250258  .00011558  00000-0  55968-3 0  9996
2 57175  97.5609 183.3542 0014024 101.1069 259.1742 15.18634105102432
VERONIKA
1 58261U 23174F   25126.71899217  .00115467  00000-0  13048-2 0  9991
2 58261  97.4140 211.0870 0007205 179.8702 180.2558 15.62058271 83384
ENSO
1 58470U 23185J   25126.83241694  .00050659  00000-0  82994-3 0  9996
2 58470  97.3758 200.9590 0008635 196.0444 164.0537 15.52283870 79799
EIRSAT-1
1 58472U 23185L   25126.86589510  .00092712  00000-0  10950-2 0  9991
2 58472  97.3722 202.3878 0007794 196.6144 163.4859 15.60980460 79894
SONATE-2
1 59112U 24043Q   25125.81841563  .00021370  00000-0  63816-3 0  9992
2 59112  97.5081 256.3410 0010847 233.3596 126.6650 15.34576653 65004
MO-122
1 60209U 24125G   25126.03534811  .00020401  00000-0  60163-3 0  9998
2 60209  97.2835 338.0635 0017597 259.5551 100.3709 15.34879741 46652
GRBBeta
1 60237U 24128C   25126.66113423  .00004330  00000-0  33324-3 0  9995
2 60237  61.9914 197.7924 0049046  49.8005 310.7363 15.02333150 45104
Curium One
1 60242U 24128H   25126.55154644  .00006946  00000-0  49402-3 0  9998
2 60242  61.9814 196.9425 0049008  45.3725 315.1347 15.04592146 45110
ROBUSTA-3A
1 60243U 24128J   25126.54411591  .00007373  00000-0  53021-3 0  9992
2 60243  61.9885 197.6863 0047472  43.1521 317.3275 15.04169404 45106
CatSat
1 60246U 24125J   25125.57045698  .00011881  00000-0  40531-3 0  9996
2 60246  97.2632 337.2046 0042332 216.9401 142.8923 15.29615179 44633
HYPERVIEW-1G (RS66S)
1 61772U 24199AP  25126.83892467  .00022807  00000-0  69005-3 0  9993
2 61772  97.3590 355.7923 0012293 318.9237  41.1080 15.34128379 71782
AO-123
1 61781U 24199AY  25126.79156754  .00007921  00000-0  29268-3 0  9997
2 61781  97.3602 354.9673 0014719 322.9945  37.0278 15.27897753 71723
ZIMSAT 2
1 61783U 24199BA  25126.86349945  .00037369  00000-0  98592-3 0  9998
2 61783  97.3573 356.2000 0012176 316.3088  43.7192 15.38310733 74969
HADES-R (SO-124)
1 62690U 25009CK  25125.44169016  .00045708  00000-0  17349-2 0  9995
2 62690  97.4092 206.4498 0004157 192.2994 167.8144 15.26684721 16787
HYDRA-T
1 62692U 25009CM  25125.62891548  .00045941  00000-0  17321-2 0  9998
2 62692  97.4100 206.6564 0004101 187.0478 173.0704 15.26906379 16814
JINJUSat 1B
1 63210U 25052A   25126.63223992  .00013059  00000-0  61097-3 0  9992
2 63210  97.4457  21.1981 0006573  84.8149 275.3836 15.19863258  8096
NUSHSAT 1
1 63211U 25052B   25126.63124195  .00014481  00000-0  67429-3 0  9993
2 63211  97.4451  21.1934 0006624  88.6300 271.5693 15.20002430  8095
TEVEL2-4
1 63213U 25052D   25126.63861782  .00014334  00000-0  67260-3 0  9995
2 63213  97.4366  21.1293 0005693  99.9203 260.2675 15.19743083  8091
TEVEL2-5
1 63214U 25052E   25126.63885717  .00014012  00000-0  65788-3 0  9996
2 63214  97.4367  21.1290 0005674  99.9973 260.1903 15.19729501  8095
TEVEL2-6
1 63215U 25052F   25126.64010414  .00014061  00000-0  66088-3 0  9990
2 63215  97.4367  21.1279 0005719 100.6211 259.5669 15.19690000  8090
TEVEL2-1
1 63217U 25052H   25126.64651583  .00014151  00000-0  66895-3 0  9996
2 63217  97.4342  21.1033 0005728 109.8115 250.3737 15.19489605  8099
TEVEL2-2
1 63218U 25052J   25126.51506493  .00014356  00000-0  67876-3 0  9999
2 63218  97.4343  20.9735 0005758 110.5359 249.6494 15.19480911  8079
TEVEL2-3
1 63219U 25052K   25126.51509319  .00014246  00000-0  67364-3 0  9990
2 63219  97.4343  20.9733 0005741 110.3324 249.8528 15.19478054  8075
TEVEL2-8
1 63237U 25052AD  25126.61983490  .00012434  00000-0  60813-3 0  9996
2 63237  97.4403  21.0289 0010095 125.2158 235.0023 15.18306699  8080
TEVEL2-9
1 63238U 25052AE  25126.22554151  .00014264  00000-0  69812-3 0  9993
2 63238  97.4406  20.6396 0010135 126.3670 233.8501 15.18250295  8025
TEVEL2-7
1 63239U 25052AF  25126.22670616  .00014335  00000-0  70229-3 0  9992
2 63239  97.4406  20.6374 0010139 126.6980 233.5187 15.18214636  8029
HYDRA-W
1 63490U 25052BL  25126.62831013  .00027602  00000-0  12259-2 0  9994
2 63490  97.4356  21.1383 0014569 124.9592 235.3015 15.21414765  8095
HADES-ICM
1 63492U 25052BN  25126.63485245  .00027647  00000-0  12398-2 0  9992
2 63492  97.4362  21.1319 0014739 128.6588 231.5969 15.21082204  8093
